Погода в Хамельне

Германия     52°06′20″N   9°21′06″E
темп.,
°C
ветер,
м/с
пор.,
м/с
влажн.,
%
обл.,
%
осадки,
мм/ч
давл.,
гПа
погр.,
м
24 мая, вт
вт2423:00+15юз3996100 1.3 997307
02:00+13з71397100 5.8 1000759
05:00+12зюз41197100 0.1 1002544
08:00+13юз3795100 0.4 1002715
11:00+11зюз4109799 4.8 1005627
14:00+16зюз7106749 5.4 10061649
17:00+17з6105126 0.4 10071895
20:00+14зюз397259 0.5 1009866
25 мая, ср
ср2523:00+9юз259164 0.0 101299
02:00+7ююз2396100 0.0 101347
05:00+7ююз22960 0.0 101334
08:00+12юз48750 0.0 1015519
11:00+16зюз58542 0.0 10151338
14:00+18зюз684432 0.0 10152394
17:00+18з61043100 0.0 10142556
20:00+15з41160100 0.0 1016941
26 мая, чт
чт2623:00+10юз3878100 0.0 1017212
02:00+13зюз51266100 0.0 10171125
05:00+12зюз51181100 0.1 1017895
08:00+13зюз51179100 0.1 1019934
11:00+17з7106081 0.1 10201605
14:00+16зюз597192 0.4 10201463
17:00+18зюз6106493 0.3 10191608
20:00+16зюз51268100 0.4 10181294
27 мая, пт
пт2723:00+16зюз61476100 0.1 10181288
02:00+15зюз71582100 0.1 10161242
05:00+12з51198100 2.1 1016951
08:00+11зсз4109356 3.0 1017945
11:00+13зсз71272100 0.5 10181586
14:00+16зсз8134371 0.7 10182469
17:00+16зсз814505 0.0 10182225
20:00+11зсз713645 0.0 10191421
28 мая, сб
сб2823:00+9з6127323 0.0 10201094
02:00+8з6138258 0.0 1019925
05:00+8з6138319 0.0 1018944
08:00+9зсз6118537 0.3 10191104
11:00+13сз710495 0.2 10191898
14:00+16сз793984 0.2 10192555
17:00+15сз79405 0.0 10192362
20:00+12сз510603 0.0 10201268